M I D A S
Marine Information and Data Acquisition System
Tripno 1327 of the Zeeleeuw from 2007-08-30 07:01:54 to 2007-08-30 14:55:45
Back to CruiseResearch ActivitiesStationsMapUnderway DataData graphs

EquipmentUnitsComment
TimeDGPSUTC
LatitudeDGPSDM.mWGS84
LongitudeDGPSDM.mWGS84
TemperatureSBE03/SBE38deg celciusITS90
ConductivitySBE21S/mITS90
SalinitySBE21 Practical Salinity Units
ChlorophylAChelsea fluorimeterg/lCalibrated in Aceton
Missing or incorrect values are displayed as -999
Sea surface data collected by the RV Zeeleeuw from 2007-08-30 07:01:30 to 2007-08-30 15:06:31
Time Latitude Longitude Temperature Conductivity Salinity ChlorophylA
2007-08-30 07:02:35 51°13.62 2°56.032 -999 -999 -999 -999
2007-08-30 07:03:35 51°13.659 2°55.914 -999 -999 -999 -999
2007-08-30 07:04:35 51°13.682 2°55.797 -999 -999 -999 -999
2007-08-30 07:05:34 51°13.685 2°55.733 -999 -999 -999 -999
2007-08-30 07:06:31 51°13.698 2°55.741 -999 -999 -999 -999
2007-08-30 07:07:32 51°13.767 2°55.695 -999 -999 -999 -999
2007-08-30 07:08:32 51°13.899 2°55.586 -999 -999 -999 -999
2007-08-30 07:09:31 51°14.046 2°55.481 -999 -999 -999 -999
2007-08-30 07:10:32 51°14.187 2°55.359 -999 -999 -999 -999
2007-08-30 07:11:32 51°14.309 2°55.178 -999 -999 -999 -999
2007-08-30 07:12:32 51°14.43 2°54.96 -999 -999 -999 -999
2007-08-30 07:13:30 51°14.578 2°54.768 -999 -999 -999 -999
2007-08-30 07:14:32 51°14.754 2°54.599 -999 -999 -999 -999
2007-08-30 07:15:31 51°14.927 2°54.454 -999 -999 -999 -999
2007-08-30 07:16:32 51°15.095 2°54.291 -999 -999 -999 -999
2007-08-30 07:17:32 51°15.264 2°54.127 -999 -999 -999 -999
2007-08-30 07:18:31 51°15.435 2°53.97 -999 -999 -999 -999
2007-08-30 07:19:32 51°15.613 2°53.814 -999 -999 -999 -999
2007-08-30 07:20:31 51°15.787 2°53.665 -999 -999 -999 -999
2007-08-30 07:21:31 51°15.966 2°53.515 -999 -999 -999 -999
2007-08-30 07:22:31 51°16.145 2°53.369 -999 -999 -999 -999
2007-08-30 07:23:31 51°16.321 2°53.216 -999 -999 -999 -999
2007-08-30 07:24:32 51°16.502 2°53.063 -999 -999 -999 -999
2007-08-30 07:25:32 51°16.68 2°52.918 -999 -999 -999 -999
2007-08-30 07:26:32 51°16.863 2°52.805 -999 -999 -999 -999
2007-08-30 07:27:32 51°17.042 2°52.685 -999 -999 -999 -999
2007-08-30 07:28:32 51°17.225 2°52.613 -999 -999 -999 -999
2007-08-30 07:29:32 51°17.329 2°52.547 -999 -999 -999 -999
2007-08-30 07:30:32 51°17.382 2°52.5 -999 -999 -999 -999
2007-08-30 07:31:30 51°17.431 2°52.477 -999 -999 -999 -999
2007-08-30 07:32:32 51°17.49 2°52.488 -999 -999 -999 -999
2007-08-30 07:33:31 51°17.542 2°52.537 -999 -999 -999 -999
2007-08-30 07:34:32 51°17.573 2°52.646 -999 -999 -999 -999
2007-08-30 07:35:32 51°17.618 2°52.891 -999 -999 -999 -999
2007-08-30 07:36:31 51°17.692 2°53.155 -999 -999 -999 -999
2007-08-30 07:37:32 51°17.774 2°53.427 -999 -999 -999 -999
2007-08-30 07:38:31 51°17.864 2°53.677 -999 -999 -999 -999
2007-08-30 07:39:31 51°17.955 2°53.933 -999 -999 -999 -999
2007-08-30 07:40:32 51°18.054 2°54.188 -999 -999 -999 -999
2007-08-30 07:41:32 51°18.154 2°54.435 -999 -999 -999 -999
2007-08-30 07:42:32 51°18.257 2°54.677 -999 -999 -999 -999
2007-08-30 07:43:31 51°18.352 2°54.922 -999 -999 -999 -999
2007-08-30 07:44:32 51°18.451 2°55.175 -999 -999 -999 -999
2007-08-30 07:45:31 51°18.549 2°55.412 -999 -999 -999 -999
2007-08-30 07:46:32 51°18.649 2°55.658 -999 -999 -999 -999
2007-08-30 07:47:31 51°18.746 2°55.894 -999 -999 -999 -999
2007-08-30 07:48:32 51°18.846 2°56.135 -999 -999 -999 -999
2007-08-30 07:49:32 51°18.945 2°56.369 -999 -999 -999 -999
2007-08-30 07:50:32 51°19.042 2°56.602 -999 -999 -999 -999
2007-08-30 07:51:31 51°19.134 2°56.832 -999 -999 -999 -999
2007-08-30 07:52:32 51°19.218 2°57.077 -999 -999 -999 -999
2007-08-30 07:53:32 51°19.273 2°57.34 -999 -999 -999 -999
2007-08-30 07:54:32 51°19.345 2°57.589 -999 -999 -999 -999
2007-08-30 07:55:32 51°19.415 2°57.84 -999 -999 -999 -999
2007-08-30 07:56:31 51°19.48 2°58.085 -999 -999 -999 -999
2007-08-30 07:57:32 51°19.537 2°58.344 -999 -999 -999 -999
2007-08-30 07:58:31 51°19.589 2°58.593 -999 -999 -999 -999
2007-08-30 07:59:31 51°19.643 2°58.844 -999 -999 -999 -999
2007-08-30 08:00:32 51°19.702 2°59.098 -999 -999 -999 -999
2007-08-30 08:01:32 51°19.759 2°59.35 -999 -999 -999 -999
2007-08-30 08:02:32 51°19.824 2°59.596 -999 -999 -999 -999
2007-08-30 08:03:32 51°19.878 2°59.849 -999 -999 -999 -999
2007-08-30 08:04:31 51°19.938 3°0.093 -999 -999 -999 -999
2007-08-30 08:05:31 51°20.001 3°0.343 -999 -999 -999 -999
2007-08-30 08:06:32 51°20.055 3°0.605 -999 -999 -999 -999
2007-08-30 08:07:32 51°20.112 3°0.858 -999 -999 -999 -999
2007-08-30 08:08:32 51°20.162 3°1.116 -999 -999 -999 -999
2007-08-30 08:09:32 51°20.226 3°1.362 -999 -999 -999 -999
2007-08-30 08:10:31 51°20.28 3°1.608 -999 -999 -999 -999
2007-08-30 08:11:32 51°20.333 3°1.865 -999 -999 -999 -999
2007-08-30 08:12:32 51°20.388 3°2.118 -999 -999 -999 -999
2007-08-30 08:13:32 51°20.44 3°2.374 -999 -999 -999 -999
2007-08-30 08:14:32 51°20.493 3°2.631 -999 -999 -999 -999
2007-08-30 08:15:32 51°20.546 3°2.888 -999 -999 -999 -999
2007-08-30 08:16:32 51°20.597 3°3.146 -999 -999 -999 -999
2007-08-30 08:17:32 51°20.65 3°3.405 -999 -999 -999 -999
2007-08-30 08:18:32 51°20.7 3°3.668 -999 -999 -999 -999
2007-08-30 08:19:32 51°20.756 3°3.931 -999 -999 -999 -999
2007-08-30 08:20:32 51°20.805 3°4.198 -999 -999 -999 -999
2007-08-30 08:21:31 51°20.855 3°4.462 -999 -999 -999 -999
2007-08-30 08:22:32 51°20.909 3°4.733 -999 -999 -999 -999
2007-08-30 08:23:32 51°20.945 3°5.009 -999 -999 -999 -999
2007-08-30 08:24:32 51°20.988 3°5.281 -999 -999 -999 -999
2007-08-30 08:25:32 51°21.027 3°5.56 -999 -999 -999 -999
2007-08-30 08:26:32 51°21.077 3°5.832 -999 -999 -999 -999
2007-08-30 08:27:32 51°21.131 3°6.101 -999 -999 -999 -999
2007-08-30 08:28:31 51°21.187 3°6.364 -999 -999 -999 -999
2007-08-30 08:29:32 51°21.24 3°6.639 -999 -999 -999 -999
2007-08-30 08:30:32 51°21.255 3°6.924 -999 -999 -999 -999
2007-08-30 08:31:32 51°21.278 3°7.205 -999 -999 -999 -999
2007-08-30 08:32:32 51°21.342 3°7.463 -999 -999 -999 -999
2007-08-30 08:33:32 51°21.433 3°7.702 -999 -999 -999 -999
2007-08-30 08:34:32 51°21.519 3°7.949 -999 -999 -999 -999
2007-08-30 08:35:32 51°21.607 3°8.195 -999 -999 -999 -999
2007-08-30 08:36:32 51°21.653 3°8.47 -999 -999 -999 -999
2007-08-30 08:37:32 51°21.694 3°8.749 -999 -999 -999 -999
2007-08-30 08:38:32 51°21.692 3°9.035 -999 -999 -999 -999
2007-08-30 08:39:32 51°21.694 3°9.199 -999 -999 -999 -999
2007-08-30 08:40:32 51°21.738 3°9.217 -999 -999 -999 -999
2007-08-30 08:41:32 51°21.757 3°9.105 -999 -999 -999 -999
2007-08-30 08:42:32 51°21.702 3°9.016 -999 -999 -999 -999
2007-08-30 08:43:32 51°21.642 3°8.956 -999 -999 -999 -999
2007-08-30 08:44:32 51°21.604 3°8.876 -999 -999 -999 -999
2007-08-30 08:45:32 51°21.586 3°8.762 -999 -999 -999 -999
2007-08-30 08:46:31 51°21.574 3°8.657 -999 -999 -999 -999
2007-08-30 08:47:32 51°21.556 3°8.553 -999 -999 -999 -999
2007-08-30 08:48:32 51°21.55 3°8.454 -999 -999 -999 -999
2007-08-30 08:49:32 51°21.544 3°8.354 -999 -999 -999 -999
2007-08-30 08:50:32 51°21.53 3°8.252 -999 -999 -999 -999
2007-08-30 08:51:32 51°21.525 3°8.153 -999 -999 -999 -999
2007-08-30 08:52:32 51°21.54 3°8.061 -999 -999 -999 -999
2007-08-30 08:53:31 51°21.57 3°7.954 -999 -999 -999 -999
2007-08-30 08:54:32 51°21.595 3°7.864 -999 -999 -999 -999
2007-08-30 08:55:32 51°21.616 3°7.805 -999 -999 -999 -999
2007-08-30 08:56:32 51°21.649 3°7.753 -999 -999 -999 -999
2007-08-30 08:57:32 51°21.686 3°7.71 -999 -999 -999 -999
2007-08-30 08:58:32 51°21.722 3°7.685 -999 -999 -999 -999
2007-08-30 08:59:32 51°21.757 3°7.682 -999 -999 -999 -999
2007-08-30 09:00:32 51°21.787 3°7.701 -999 -999 -999 -999
2007-08-30 09:01:32 51°21.807 3°7.713 -999 -999 -999 -999
2007-08-30 09:02:32 51°21.832 3°7.729 -999 -999 -999 -999
2007-08-30 09:03:32 51°21.858 3°7.744 -999 -999 -999 -999
2007-08-30 09:04:32 51°21.882 3°7.76 -999 -999 -999 -999
2007-08-30 09:05:32 51°21.908 3°7.781 -999 -999 -999 -999
2007-08-30 09:06:32 51°21.931 3°7.804 -999 -999 -999 -999
2007-08-30 09:07:32 51°21.951 3°7.828 -999 -999 -999 -999
2007-08-30 09:08:32 51°21.974 3°7.851 -999 -999 -999 -999
2007-08-30 09:09:32 51°21.996 3°7.882 -999 -999 -999 -999
2007-08-30 09:10:32 51°22.01 3°7.92 -999 -999 -999 -999
2007-08-30 09:11:32 51°22.023 3°7.957 -999 -999 -999 -999
2007-08-30 09:12:32 51°22.035 3°7.992 -999 -999 -999 -999
2007-08-30 09:13:32 51°22.045 3°8.023 -999 -999 -999 -999
2007-08-30 09:14:32 51°22.059 3°8.06 -999 -999 -999 -999
2007-08-30 09:15:32 51°22.073 3°8.097 -999 -999 -999 -999
2007-08-30 09:16:32 51°22.083 3°8.134 -999 -999 -999 -999
2007-08-30 09:17:32 51°22.084 3°8.165 -999 -999 -999 -999
2007-08-30 09:18:32 51°22.067 3°8.192 -999 -999 -999 -999
2007-08-30 09:19:32 51°22.034 3°8.204 -999 -999 -999 -999
2007-08-30 09:20:32 51°22 3°8.188 -999 -999 -999 -999
2007-08-30 09:21:32 51°21.972 3°8.162 -999 -999 -999 -999
2007-08-30 09:22:32 51°21.948 3°8.139 -999 -999 -999 -999
2007-08-30 09:23:32 51°21.927 3°8.116 -999 -999 -999 -999
2007-08-30 09:24:32 51°21.907 3°8.093 -999 -999 -999 -999
2007-08-30 09:25:32 51°21.886 3°8.071 -999 -999 -999 -999
2007-08-30 09:26:32 51°21.85 3°7.984 -999 -999 -999 -999
2007-08-30 09:27:32 51°21.897 3°7.895 -999 -999 -999 -999
2007-08-30 09:28:32 51°21.913 3°8.017 -999 -999 -999 -999
2007-08-30 09:29:32 51°21.926 3°8.276 -999 -999 -999 -999
2007-08-30 09:30:32 51°21.974 3°8.554 -999 -999 -999 -999
2007-08-30 09:31:32 51°22.019 3°8.84 -999 -999 -999 -999
2007-08-30 09:32:32 51°22.063 3°9.127 -999 -999 -999 -999
2007-08-30 09:33:32 51°22.135 3°9.286 -999 -999 -999 -999
2007-08-30 09:34:32 51°22.173 3°9.427 -999 -999 -999 -999
2007-08-30 09:35:32 51°22.208 3°9.618 -999 -999 -999 -999
2007-08-30 09:36:32 51°22.264 3°9.902 -999 -999 -999 -999
2007-08-30 09:37:32 51°22.32 3°10.195 -999 -999 -999 -999
2007-08-30 09:38:32 51°22.381 3°10.489 -999 -999 -999 -999
2007-08-30 09:39:32 51°22.445 3°10.787 -999 -999 -999 -999
2007-08-30 09:40:32 51°22.507 3°11.083 -999 -999 -999 -999
2007-08-30 09:41:32 51°22.569 3°11.379 -999 -999 -999 -999
2007-08-30 09:42:32 51°22.634 3°11.67 -999 -999 -999 -999
2007-08-30 09:43:32 51°22.699 3°11.96 -999 -999 -999 -999
2007-08-30 09:44:32 51°22.769 3°12.248 -999 -999 -999 -999
2007-08-30 09:45:32 51°22.839 3°12.537 -999 -999 -999 -999
2007-08-30 09:46:32 51°22.908 3°12.827 -999 -999 -999 -999
2007-08-30 09:47:32 51°22.976 3°13.114 -999 -999 -999 -999
2007-08-30 09:48:32 51°23.048 3°13.4 -999 -999 -999 -999
2007-08-30 09:49:32 51°23.121 3°13.687 -999 -999 -999 -999
2007-08-30 09:50:32 51°23.191 3°13.976 -999 -999 -999 -999
2007-08-30 09:51:32 51°23.262 3°14.263 -999 -999 -999 -999
2007-08-30 09:52:32 51°23.391 3°14.471 -999 -999 -999 -999
2007-08-30 09:53:32 51°23.587 3°14.447 -999 -999 -999 -999
2007-08-30 09:54:32 51°23.789 3°14.389 -999 -999 -999 -999
2007-08-30 09:55:32 51°23.991 3°14.363 -999 -999 -999 -999
2007-08-30 09:56:32 51°24.196 3°14.346 -999 -999 -999 -999
2007-08-30 09:57:32 51°24.403 3°14.337 -999 -999 -999 -999
2007-08-30 09:58:32 51°24.612 3°14.337 -999 -999 -999 -999
2007-08-30 09:59:32 51°24.823 3°14.342 -999 -999 -999 -999
2007-08-30 10:00:32 51°25.026 3°14.337 -999 -999 -999 -999
2007-08-30 10:01:32 51°25.223 3°14.314 -999 -999 -999 -999
2007-08-30 10:02:32 51°25.417 3°14.289 -999 -999 -999 -999
2007-08-30 10:03:32 51°25.558 3°14.131 -999 -999 -999 -999
2007-08-30 10:04:32 51°25.508 3°13.833 -999 -999 -999 -999
2007-08-30 10:05:32 51°25.457 3°13.511 -999 -999 -999 -999
2007-08-30 10:06:32 51°25.401 3°13.191 -999 -999 -999 -999
2007-08-30 10:07:32 51°25.362 3°12.866 -999 -999 -999 -999
2007-08-30 10:08:32 51°25.323 3°12.542 -999 -999 -999 -999
2007-08-30 10:09:32 51°25.276 3°12.218 -999 -999 -999 -999
2007-08-30 10:10:32 51°25.228 3°11.895 -999 -999 -999 -999
2007-08-30 10:11:32 51°25.183 3°11.571 -999 -999 -999 -999
2007-08-30 10:12:32 51°25.136 3°11.248 -999 -999 -999 -999
2007-08-30 10:13:32 51°25.089 3°10.925 -999 -999 -999 -999
2007-08-30 10:14:32 51°25.041 3°10.605 -999 -999 -999 -999
2007-08-30 10:15:32 51°25 3°10.282 -999 -999 -999 -999
2007-08-30 10:16:32 51°24.951 3°9.961 -999 -999 -999 -999
2007-08-30 10:17:32 51°24.901 3°9.639 -999 -999 -999 -999
2007-08-30 10:18:32 51°24.855 3°9.316 -999 -999 -999 -999
2007-08-30 10:19:32 51°24.813 3°8.99 -999 -999 -999 -999
2007-08-30 10:20:32 51°24.767 3°8.663 -999 -999 -999 -999
2007-08-30 10:21:32 51°24.724 3°8.335 -999 -999 -999 -999
2007-08-30 10:22:32 51°24.682 3°8.004 -999 -999 -999 -999
2007-08-30 10:23:32 51°24.643 3°7.673 -999 -999 -999 -999
2007-08-30 10:24:32 51°24.704 3°7.371 -999 -999 -999 -999
2007-08-30 10:25:32 51°24.843 3°7.149 -999 -999 -999 -999
2007-08-30 10:26:32 51°24.999 3°6.977 -999 -999 -999 -999
2007-08-30 10:27:32 51°25.179 3°6.927 -999 -999 -999 -999
2007-08-30 10:28:32 51°25.363 3°6.899 -999 -999 -999 -999
2007-08-30 10:29:32 51°25.52 3°7.039 -999 -999 -999 -999
2007-08-30 10:30:32 51°25.665 3°7.225 -999 -999 -999 -999
2007-08-30 10:31:32 51°25.815 3°7.401 -999 -999 -999 -999
2007-08-30 10:32:32 51°25.925 3°7.639 -999 -999 -999 -999
2007-08-30 10:33:32 51°26.047 3°7.858 -999 -999 -999 -999
2007-08-30 10:34:32 51°26.171 3°8.073 -999 -999 -999 -999
2007-08-30 10:35:32 51°26.298 3°8.287 -999 -999 -999 -999
2007-08-30 10:36:32 51°26.426 3°8.502 -999 -999 -999 -999
2007-08-30 10:37:32 51°26.554 3°8.721 -999 -999 -999 -999
2007-08-30 10:38:32 51°26.685 3°8.942 -999 -999 -999 -999
2007-08-30 10:39:32 51°26.815 3°9.163 -999 -999 -999 -999
2007-08-30 10:40:32 51°26.946 3°9.382 -999 -999 -999 -999
2007-08-30 10:41:32 51°27.077 3°9.604 -999 -999 -999 -999
2007-08-30 10:42:32 51°27.208 3°9.827 -999 -999 -999 -999
2007-08-30 10:43:32 51°27.342 3°10.048 -999 -999 -999 -999
2007-08-30 10:44:32 51°27.471 3°10.278 -999 -999 -999 -999
2007-08-30 10:45:32 51°27.6 3°10.504 -999 -999 -999 -999
2007-08-30 10:46:32 51°27.726 3°10.732 -999 -999 -999 -999
2007-08-30 10:47:32 51°27.853 3°10.963 -999 -999 -999 -999
2007-08-30 10:48:32 51°27.983 3°11.191 -999 -999 -999 -999
2007-08-30 10:49:32 51°28.108 3°11.425 -999 -999 -999 -999
2007-08-30 10:50:32 51°28.237 3°11.654 -999 -999 -999 -999
2007-08-30 10:51:32 51°28.371 3°11.869 -999 -999 -999 -999
2007-08-30 10:52:32 51°28.546 3°11.923 -999 -999 -999 -999
2007-08-30 10:53:32 51°28.73 3°11.897 -999 -999 -999 -999
2007-08-30 10:54:32 51°28.91 3°11.856 -999 -999 -999 -999
2007-08-30 10:55:32 51°29.064 3°11.687 -999 -999 -999 -999
2007-08-30 10:56:32 51°29.207 3°11.489 -999 -999 -999 -999
2007-08-30 10:57:32 51°29.347 3°11.278 -999 -999 -999 -999
2007-08-30 10:58:32 51°29.485 3°11.063 -999 -999 -999 -999
2007-08-30 10:59:32 51°29.618 3°10.833 -999 -999 -999 -999
2007-08-30 11:00:32 51°29.751 3°10.603 -999 -999 -999 -999
2007-08-30 11:01:32 51°29.883 3°10.369 -999 -999 -999 -999
2007-08-30 11:02:32 51°30.018 3°10.138 -999 -999 -999 -999
2007-08-30 11:03:32 51°30.153 3°9.907 -999 -999 -999 -999
2007-08-30 11:04:31 51°30.285 3°9.677 -999 -999 -999 -999
2007-08-30 11:05:31 51°30.42 3°9.446 -999 -999 -999 -999
2007-08-30 11:06:32 51°30.556 3°9.205 -999 -999 -999 -999
2007-08-30 11:07:32 51°30.687 3°8.963 -999 -999 -999 -999
2007-08-30 11:08:32 51°30.82 3°8.721 -999 -999 -999 -999
2007-08-30 11:09:32 51°30.952 3°8.477 -999 -999 -999 -999
2007-08-30 11:10:32 51°31.084 3°8.232 -999 -999 -999 -999
2007-08-30 11:11:32 51°31.214 3°7.983 -999 -999 -999 -999
2007-08-30 11:12:32 51°31.347 3°7.739 -999 -999 -999 -999
2007-08-30 11:13:32 51°31.481 3°7.496 -999 -999 -999 -999
2007-08-30 11:14:32 51°31.614 3°7.253 -999 -999 -999 -999
2007-08-30 11:15:32 51°31.757 3°7.032 -999 -999 -999 -999
2007-08-30 11:16:32 51°31.909 3°6.822 -999 -999 -999 -999
2007-08-30 11:17:32 51°32.06 3°6.612 -999 -999 -999 -999
2007-08-30 11:18:32 51°32.205 3°6.391 -999 -999 -999 -999
2007-08-30 11:19:32 51°32.338 3°6.146 -999 -999 -999 -999
2007-08-30 11:20:32 51°32.469 3°5.898 -999 -999 -999 -999
2007-08-30 11:21:32 51°32.601 3°5.651 -999 -999 -999 -999
2007-08-30 11:22:32 51°32.734 3°5.408 -999 -999 -999 -999
2007-08-30 11:23:32 51°32.869 3°5.166 -999 -999 -999 -999
2007-08-30 11:24:32 51°32.998 3°4.914 -999 -999 -999 -999
2007-08-30 11:25:32 51°33.129 3°4.664 -999 -999 -999 -999
2007-08-30 11:26:32 51°33.259 3°4.407 -999 -999 -999 -999
2007-08-30 11:27:32 51°33.387 3°4.154 -999 -999 -999 -999
2007-08-30 11:28:32 51°33.516 3°3.904 -999 -999 -999 -999
2007-08-30 11:29:32 51°33.641 3°3.649 -999 -999 -999 -999
2007-08-30 11:30:32 51°33.768 3°3.393 -999 -999 -999 -999
2007-08-30 11:31:32 51°33.894 3°3.135 -999 -999 -999 -999
2007-08-30 11:32:32 51°34.022 3°2.874 -999 -999 -999 -999
2007-08-30 11:33:32 51°34.152 3°2.613 -999 -999 -999 -999
2007-08-30 11:34:32 51°34.28 3°2.353 -999 -999 -999 -999
2007-08-30 11:35:32 51°34.404 3°2.094 -999 -999 -999 -999
2007-08-30 11:36:32 51°34.527 3°1.84 -999 -999 -999 -999
2007-08-30 11:37:32 51°34.649 3°1.587 -999 -999 -999 -999
2007-08-30 11:38:32 51°34.77 3°1.335 -999 -999 -999 -999
2007-08-30 11:39:32 51°34.892 3°1.082 -999 -999 -999 -999
2007-08-30 11:40:32 51°35.016 3°0.827 -999 -999 -999 -999
2007-08-30 11:41:32 51°35.142 3°0.57 -999 -999 -999 -999
2007-08-30 11:42:32 51°35.265 3°0.306 -999 -999 -999 -999
2007-08-30 11:43:32 51°35.294 2°59.973 -999 -999 -999 -999
2007-08-30 11:44:32 51°35.292 2°59.625 -999 -999 -999 -999
2007-08-30 11:45:32 51°35.237 2°59.284 -999 -999 -999 -999
2007-08-30 11:46:32 51°35.171 2°58.947 -999 -999 -999 -999
2007-08-30 11:47:32 51°35.073 2°58.627 -999 -999 -999 -999
2007-08-30 11:48:32 51°34.979 2°58.305 -999 -999 -999 -999
2007-08-30 11:49:32 51°34.869 2°57.995 -999 -999 -999 -999
2007-08-30 11:50:32 51°34.757 2°57.689 -999 -999 -999 -999
2007-08-30 11:51:32 51°34.643 2°57.383 -999 -999 -999 -999
2007-08-30 11:52:32 51°34.531 2°57.078 -999 -999 -999 -999
2007-08-30 11:53:32 51°34.42 2°56.772 -999 -999 -999 -999
2007-08-30 11:54:32 51°34.311 2°56.467 -999 -999 -999 -999
2007-08-30 11:55:32 51°34.199 2°56.164 -999 -999 -999 -999
2007-08-30 11:56:32 51°34.091 2°55.858 -999 -999 -999 -999
2007-08-30 11:57:32 51°33.981 2°55.556 -999 -999 -999 -999
2007-08-30 11:58:32 51°33.871 2°55.25 -999 -999 -999 -999
2007-08-30 11:59:32 51°33.764 2°54.945 -999 -999 -999 -999
2007-08-30 12:00:32 51°33.654 2°54.645 -999 -999 -999 -999
2007-08-30 12:01:32 51°33.543 2°54.345 -999 -999 -999 -999
2007-08-30 12:02:32 51°33.433 2°54.048 -999 -999 -999 -999
2007-08-30 12:03:32 51°33.324 2°53.752 -999 -999 -999 -999
2007-08-30 12:04:32 51°33.215 2°53.454 -999 -999 -999 -999
2007-08-30 12:05:32 51°33.106 2°53.157 -999 -999 -999 -999
2007-08-30 12:06:32 51°32.997 2°52.862 -999 -999 -999 -999
2007-08-30 12:07:32 51°32.889 2°52.567 -999 -999 -999 -999
2007-08-30 12:08:32 51°32.782 2°52.27 -999 -999 -999 -999
2007-08-30 12:09:32 51°32.674 2°51.976 -999 -999 -999 -999
2007-08-30 12:10:32 51°32.569 2°51.682 -999 -999 -999 -999
2007-08-30 12:11:32 51°32.457 2°51.392 -999 -999 -999 -999
2007-08-30 12:12:32 51°32.348 2°51.104 -999 -999 -999 -999
2007-08-30 12:13:32 51°32.238 2°50.814 -999 -999 -999 -999
2007-08-30 12:14:32 51°32.128 2°50.527 -999 -999 -999 -999
2007-08-30 12:15:32 51°32.017 2°50.241 -999 -999 -999 -999
2007-08-30 12:16:32 51°31.903 2°49.961 -999 -999 -999 -999
2007-08-30 12:17:32 51°31.79 2°49.681 -999 -999 -999 -999
2007-08-30 12:18:32 51°31.676 2°49.402 -999 -999 -999 -999
2007-08-30 12:19:32 51°31.563 2°49.124 -999 -999 -999 -999
2007-08-30 12:20:32 51°31.45 2°48.845 -999 -999 -999 -999
2007-08-30 12:21:32 51°31.339 2°48.566 -999 -999 -999 -999
2007-08-30 12:22:32 51°31.227 2°48.291 -999 -999 -999 -999
2007-08-30 12:23:32 51°31.056 2°48.109 -999 -999 -999 -999
2007-08-30 12:24:32 51°30.849 2°48.046 -999 -999 -999 -999
2007-08-30 12:25:32 51°30.635 2°48.068 -999 -999 -999 -999
2007-08-30 12:26:32 51°30.434 2°48.212 -999 -999 -999 -999
2007-08-30 12:27:32 51°30.233 2°48.355 -999 -999 -999 -999
2007-08-30 12:28:32 51°30.056 2°48.561 -999 -999 -999 -999
2007-08-30 12:29:32 51°30.016 2°48.911 -999 -999 -999 -999
2007-08-30 12:30:32 51°30.074 2°49.267 -999 -999 -999 -999
2007-08-30 12:31:32 51°30.18 2°49.598 -999 -999 -999 -999
2007-08-30 12:32:32 51°30.282 2°49.936 -999 -999 -999 -999
2007-08-30 12:33:32 51°30.385 2°50.27 -999 -999 -999 -999
2007-08-30 12:34:32 51°30.489 2°50.603 -999 -999 -999 -999
2007-08-30 12:35:32 51°30.589 2°50.94 -999 -999 -999 -999
2007-08-30 12:36:32 51°30.7 2°51.267 -999 -999 -999 -999
2007-08-30 12:37:32 51°30.81 2°51.597 -999 -999 -999 -999
2007-08-30 12:38:32 51°30.915 2°51.93 -999 -999 -999 -999
2007-08-30 12:39:32 51°31.019 2°52.266 -999 -999 -999 -999
2007-08-30 12:40:32 51°31.126 2°52.602 -999 -999 -999 -999
2007-08-30 12:41:32 51°31.231 2°52.935 -999 -999 -999 -999
2007-08-30 12:42:32 51°31.332 2°53.272 -999 -999 -999 -999
2007-08-30 12:43:32 51°31.434 2°53.612 -999 -999 -999 -999
2007-08-30 12:44:32 51°31.538 2°53.947 -999 -999 -999 -999
2007-08-30 12:45:32 51°31.64 2°54.289 -999 -999 -999 -999
2007-08-30 12:46:32 51°31.742 2°54.629 -999 -999 -999 -999
2007-08-30 12:47:32 51°31.844 2°54.97 -999 -999 -999 -999
2007-08-30 12:48:32 51°31.948 2°55.309 -999 -999 -999 -999
2007-08-30 12:49:32 51°32.052 2°55.65 -999 -999 -999 -999
2007-08-30 12:50:32 51°32.136 2°56 -999 -999 -999 -999
2007-08-30 12:51:32 51°32.093 2°56.363 -999 -999 -999 -999
2007-08-30 12:52:32 51°31.984 2°56.692 -999 -999 -999 -999
2007-08-30 12:53:32 51°31.875 2°57.023 -999 -999 -999 -999
2007-08-30 12:54:32 51°31.759 2°57.351 -999 -999 -999 -999
2007-08-30 12:55:32 51°31.64 2°57.676 -999 -999 -999 -999
2007-08-30 12:56:32 51°31.53 2°58.005 -999 -999 -999 -999
2007-08-30 12:57:32 51°31.403 2°58.311 -999 -999 -999 -999
2007-08-30 12:58:32 51°31.273 2°58.623 -999 -999 -999 -999
2007-08-30 12:59:32 51°31.149 2°58.938 -999 -999 -999 -999
2007-08-30 13:00:32 51°31.022 2°59.255 -999 -999 -999 -999
2007-08-30 13:01:32 51°30.891 2°59.57 -999 -999 -999 -999
2007-08-30 13:02:32 51°30.763 2°59.88 -999 -999 -999 -999
2007-08-30 13:03:32 51°30.628 3°0.181 -999 -999 -999 -999
2007-08-30 13:04:32 51°30.498 3°0.483 -999 -999 -999 -999
2007-08-30 13:05:32 51°30.368 3°0.781 -999 -999 -999 -999
2007-08-30 13:06:32 51°30.24 3°1.084 -999 -999 -999 -999
2007-08-30 13:07:32 51°30.114 3°1.388 -999 -999 -999 -999
2007-08-30 13:08:32 51°29.984 3°1.697 -999 -999 -999 -999
2007-08-30 13:09:32 51°29.852 3°2.004 -999 -999 -999 -999
2007-08-30 13:10:32 51°29.723 3°2.311 -999 -999 -999 -999
2007-08-30 13:11:32 51°29.588 3°2.621 -999 -999 -999 -999
2007-08-30 13:12:32 51°29.454 3°2.925 -999 -999 -999 -999
2007-08-30 13:13:32 51°29.323 3°3.23 -999 -999 -999 -999
2007-08-30 13:14:32 51°29.187 3°3.525 -999 -999 -999 -999
2007-08-30 13:15:32 51°29.014 3°3.746 -999 -999 -999 -999
2007-08-30 13:16:32 51°28.839 3°3.96 -999 -999 -999 -999
2007-08-30 13:17:32 51°28.64 3°4.093 -999 -999 -999 -999
2007-08-30 13:18:32 51°28.441 3°4.213 -999 -999 -999 -999
2007-08-30 13:19:32 51°28.24 3°4.325 -999 -999 -999 -999
2007-08-30 13:20:32 51°28.039 3°4.431 -999 -999 -999 -999
2007-08-30 13:21:32 51°27.836 3°4.536 -999 -999 -999 -999
2007-08-30 13:22:32 51°27.63 3°4.561 -999 -999 -999 -999
2007-08-30 13:23:32 51°27.426 3°4.585 -999 -999 -999 -999
2007-08-30 13:24:32 51°27.225 3°4.61 -999 -999 -999 -999
2007-08-30 13:25:32 51°27.019 3°4.627 -999 -999 -999 -999
2007-08-30 13:26:32 51°26.819 3°4.653 -999 -999 -999 -999
2007-08-30 13:27:32 51°26.619 3°4.657 -999 -999 -999 -999
2007-08-30 13:28:32 51°26.421 3°4.634 -999 -999 -999 -999
2007-08-30 13:29:32 51°26.225 3°4.612 -999 -999 -999 -999
2007-08-30 13:30:32 51°26.03 3°4.59 -999 -999 -999 -999
2007-08-30 13:31:32 51°25.836 3°4.577 -999 -999 -999 -999
2007-08-30 13:32:32 51°25.641 3°4.569 -999 -999 -999 -999
2007-08-30 13:33:32 51°25.445 3°4.56 -999 -999 -999 -999
2007-08-30 13:34:32 51°25.251 3°4.558 -999 -999 -999 -999
2007-08-30 13:35:32 51°25.054 3°4.554 -999 -999 -999 -999
2007-08-30 13:36:32 51°24.855 3°4.551 -999 -999 -999 -999
2007-08-30 13:37:32 51°24.653 3°4.546 -999 -999 -999 -999
2007-08-30 13:38:32 51°24.454 3°4.545 -999 -999 -999 -999
2007-08-30 13:39:32 51°24.249 3°4.536 -999 -999 -999 -999
2007-08-30 13:40:32 51°24.043 3°4.525 -999 -999 -999 -999
2007-08-30 13:41:32 51°23.842 3°4.52 -999 -999 -999 -999
2007-08-30 13:42:33 51°23.639 3°4.505 -999 -999 -999 -999
2007-08-30 13:43:32 51°23.465 3°4.404 -999 -999 -999 -999
2007-08-30 13:44:32 51°23.317 3°4.231 -999 -999 -999 -999
2007-08-30 13:45:32 51°23.191 3°4.018 -999 -999 -999 -999
2007-08-30 13:46:32 51°23.061 3°3.809 -999 -999 -999 -999
2007-08-30 13:47:32 51°22.932 3°3.596 -999 -999 -999 -999
2007-08-30 13:48:32 51°22.81 3°3.375 -999 -999 -999 -999
2007-08-30 13:49:32 51°22.689 3°3.153 -999 -999 -999 -999
2007-08-30 13:50:32 51°22.569 3°2.934 -999 -999 -999 -999
2007-08-30 13:51:32 51°22.447 3°2.715 -999 -999 -999 -999
2007-08-30 13:52:32 51°22.334 3°2.488 -999 -999 -999 -999
2007-08-30 13:53:32 51°22.22 3°2.257 -999 -999 -999 -999
2007-08-30 13:54:32 51°22.108 3°2.026 -999 -999 -999 -999
2007-08-30 13:55:32 51°21.996 3°1.795 -999 -999 -999 -999
2007-08-30 13:56:32 51°21.884 3°1.566 -999 -999 -999 -999
2007-08-30 13:57:32 51°21.777 3°1.329 -999 -999 -999 -999
2007-08-30 13:58:32 51°21.676 3°1.088 -999 -999 -999 -999
2007-08-30 13:59:32 51°21.579 3°0.841 -999 -999 -999 -999
2007-08-30 14:00:32 51°21.481 3°0.598 -999 -999 -999 -999
2007-08-30 14:01:32 51°21.385 3°0.355 -999 -999 -999 -999
2007-08-30 14:02:32 51°21.289 3°0.114 -999 -999 -999 -999
2007-08-30 14:03:33 51°21.19 2°59.87 -999 -999 -999 -999
2007-08-30 14:04:32 51°21.093 2°59.631 -999 -999 -999 -999
2007-08-30 14:05:33 51°20.995 2°59.384 -999 -999 -999 -999
2007-08-30 14:06:32 51°20.9 2°59.147 -999 -999 -999 -999
2007-08-30 14:07:32 51°20.804 2°58.903 -999 -999 -999 -999
2007-08-30 14:08:32 51°20.708 2°58.657 -999 -999 -999 -999
2007-08-30 14:09:32 51°20.607 2°58.416 -999 -999 -999 -999
2007-08-30 14:10:32 51°20.505 2°58.174 -999 -999 -999 -999
2007-08-30 14:11:32 51°20.404 2°57.93 -999 -999 -999 -999
2007-08-30 14:12:33 51°20.302 2°57.683 -999 -999 -999 -999
2007-08-30 14:13:32 51°20.203 2°57.444 -999 -999 -999 -999
2007-08-30 14:14:33 51°20.1 2°57.196 -999 -999 -999 -999
2007-08-30 14:15:32 51°20 2°56.955 -999 -999 -999 -999
2007-08-30 14:16:32 51°19.898 2°56.711 -999 -999 -999 -999
2007-08-30 14:17:32 51°19.795 2°56.466 -999 -999 -999 -999
2007-08-30 14:18:32 51°19.69 2°56.22 -999 -999 -999 -999
2007-08-30 14:19:33 51°19.583 2°55.969 -999 -999 -999 -999
2007-08-30 14:20:32 51°19.48 2°55.723 -999 -999 -999 -999
2007-08-30 14:21:33 51°19.373 2°55.469 -999 -999 -999 -999
2007-08-30 14:22:32 51°19.268 2°55.225 -999 -999 -999 -999
2007-08-30 14:23:33 51°19.16 2°54.972 -999 -999 -999 -999
2007-08-30 14:24:32 51°19.056 2°54.727 -999 -999 -999 -999
2007-08-30 14:25:33 51°18.949 2°54.473 -999 -999 -999 -999
2007-08-30 14:26:32 51°18.846 2°54.228 -999 -999 -999 -999
2007-08-30 14:27:32 51°18.742 2°53.978 -999 -999 -999 -999
2007-08-30 14:28:32 51°18.638 2°53.727 -999 -999 -999 -999
2007-08-30 14:29:32 51°18.536 2°53.475 -999 -999 -999 -999
2007-08-30 14:30:33 51°18.432 2°53.218 -999 -999 -999 -999
2007-08-30 14:31:32 51°18.363 2°52.945 -999 -999 -999 -999
2007-08-30 14:32:33 51°18.244 2°52.711 -999 -999 -999 -999
2007-08-30 14:33:32 51°18.069 2°52.623 -999 -999 -999 -999
2007-08-30 14:34:32 51°17.923 2°52.664 -999 -999 -999 -999
2007-08-30 14:35:33 51°17.831 2°52.719 -999 -999 -999 -999
2007-08-30 14:36:33 51°17.712 2°52.708 -999 -999 -999 -999
2007-08-30 14:37:33 51°17.531 2°52.679 -999 -999 -999 -999
2007-08-30 14:38:32 51°17.343 2°52.677 -999 -999 -999 -999
2007-08-30 14:39:33 51°17.144 2°52.714 -999 -999 -999 -999
2007-08-30 14:40:32 51°16.95 2°52.748 -999 -999 -999 -999
2007-08-30 14:41:32 51°16.755 2°52.785 -999 -999 -999 -999
2007-08-30 14:42:33 51°16.56 2°52.866 -999 -999 -999 -999
2007-08-30 14:43:32 51°16.375 2°52.991 -999 -999 -999 -999
2007-08-30 14:44:32 51°16.191 2°53.137 -999 -999 -999 -999
2007-08-30 14:45:32 51°16.004 2°53.277 -999 -999 -999 -999
2007-08-30 14:46:33 51°15.815 2°53.422 -999 -999 -999 -999
2007-08-30 14:47:32 51°15.634 2°53.568 -999 -999 -999 -999
2007-08-30 14:48:32 51°15.45 2°53.722 -999 -999 -999 -999
2007-08-30 14:49:33 51°15.265 2°53.873 -999 -999 -999 -999
2007-08-30 14:50:33 51°15.081 2°54.023 -999 -999 -999 -999
2007-08-30 14:51:33 51°14.911 2°54.213 -999 -999 -999 -999
2007-08-30 14:52:33 51°14.748 2°54.426 -999 -999 -999 -999
2007-08-30 14:53:32 51°14.592 2°54.642 -999 -999 -999 -999
2007-08-30 14:54:32 51°14.453 2°54.895 -999 -999 -999 -999
2007-08-30 14:55:33 51°14.335 2°55.132 -999 -999 -999 -999
2007-08-30 14:56:33 51°14.232 2°55.308 -999 -999 -999 -999
2007-08-30 14:57:35 51°14.119 2°55.419 -999 -999 -999 -999
2007-08-30 14:58:34 51°14.026 2°55.488 -999 -999 -999 -999
2007-08-30 14:59:33 51°13.933 2°55.556 -999 -999 -999 -999
2007-08-30 15:00:33 51°13.816 2°55.642 -999 -999 -999 -999
2007-08-30 15:01:36 51°13.728 2°55.763 -999 -999 -999 -999
2007-08-30 15:02:36 51°13.673 2°55.88 -999 -999 -999 -999
2007-08-30 15:03:36 51°13.634 2°55.973 -999 -999 -999 -999
2007-08-30 15:04:36 51°13.612 2°56.055 -999 -999 -999 -999
2007-08-30 15:05:36 51°13.604 2°56.093 -999 -999 -999 -999